Weather History for MHLM - March, 2013

Change the Weather History Date:

Sunday, March 17, 2013

  Actual Average Record
Temperature  
Mean Temperature 78 °F -  
Max Temperature 89 °F 89 °F 105 °F (2003)
Min Temperature 67 °F 71 °F 66 °F (1999)
Cooling Degree Days 13    
Growing Degree Days 28 (Base 50)    
Moisture  
Dew Point 73 °F    
Average Humidity 84    
Maximum Humidity 100    
Minimum Humidity 53    
Precipitation  
Precipitation 0.00 in 0.04 in - ()
Sea Level Pressure  
Sea Level Pressure 29.91 in    
Wind  
Wind Speed 3 mph ()    
Max Wind Speed 15 mph    
Max Gust Speed -    
Visibility 6.2 miles    
Events      
Averages and records for this station are not official NWS values.
T = Trace of Precipitation, MM = Missing Value Source: Averaged Metar Reports

Daily Weather History Graph

Daily Weather History Graph

Search for Another Location

Airport or City:

Trip Planner

Search our weather history database for the weather conditions in past years. The results will help you decide how hot, cold, wet, or windy it might be!

Date:

Astronomy

Mar. 17, 2013 Rise Set
Actual Time 5:57 AM CST 6:02 PM CST
Civil Twilight 5:36 AM CST 6:23 PM CST
Nautical Twilight 5:11 AM CST 6:48 PM CST
Astronomical Twilight 4:46 AM CST 7:13 PM CST
Moon 10:00 AM CST (3/17) 11:11 PM CST (3/17)
Length of Visible Light 12h 47m
Length of Day
12h 04m
Waxing Crescent, 32% of the Moon is Illuminated
Mar 17
Waxing Crescent
Mar 19
First Quarter
Mar 27
Full
Apr 2
Last Quarter
Apr 10
New

Hourly Weather History & Observations

Time (CST) Temp. Heat Index Dew Point Humidity Pressure Visibility Wind Dir Wind Speed Gust Speed Precip Events Conditions
12:00 AM 71.6 °F - 71.6 °F 100% 29.98 in 6.2 mi Calm Calm - N/A   Scattered Clouds
1:00 AM 71.6 °F - 71.6 °F 100% 29.98 in 6.2 mi Calm Calm - N/A   Partly Cloudy
2:00 AM 69.8 °F - 69.8 °F 100% 29.95 in 6.2 mi Calm Calm - N/A   Scattered Clouds
3:00 AM 69 °F - 69 °F 100% 29.95 in 6 mi Calm Calm - -   Haze
3:00 AM 69.8 °F - 69.8 °F 100% 29.95 in 6.2 mi Calm Calm - N/A   Scattered Clouds
4:00 AM 68.0 °F - 68.0 °F 100% 29.95 in 6.2 mi South 2.3 mph - N/A   Scattered Clouds
5:00 AM 68.0 °F - 68.0 °F 100% 29.95 in 6.2 mi SSW 4.6 mph - N/A   Scattered Clouds
6:00 AM 68.0 °F - 68.0 °F 100% 29.95 in 6.2 mi Calm Calm - N/A   Scattered Clouds
7:00 AM 68.0 °F - 68.0 °F 100% 29.98 in 6.2 mi Calm Calm - N/A   Partly Cloudy
8:00 AM 73.4 °F - 71.6 °F 94% 30.01 in 6.2 mi Calm Calm - N/A   Partly Cloudy
9:00 AM 79 °F - 68 °F 62% 30.00 in 6 mi SSE 4.6 mph - -   Haze
9:00 AM 78.8 °F - 71.6 °F 78% 30.01 in 6.2 mi SSE 4.6 mph - N/A   Partly Cloudy
10:00 AM 82.4 °F 87.2 °F 71.6 °F 70% 29.98 in 6.2 mi SSE 5.8 mph - N/A   Partly Cloudy
11:00 AM 84.2 °F 90.9 °F 73.4 °F 70% 29.95 in 6.2 mi Calm Calm - N/A   Partly Cloudy
12:00 PM 87 °F - 72 °F 53% 29.92 in 6 mi NNW 4.6 mph - -   Haze
12:00 PM 87.8 °F 95.6 °F 73.4 °F 62% 29.92 in 6.2 mi NNW 4.6 mph - N/A   Partly Cloudy
1:00 PM 87.8 °F 93.8 °F 71.6 °F 58% 29.89 in 6.2 mi North 5.8 mph - N/A   Partly Cloudy
2:00 PM 89.6 °F 99.8 °F 75.2 °F 62% 29.86 in 6.2 mi NE 9.2 mph - N/A   Partly Cloudy
3:00 PM 90 °F - 76 °F 55% 29.82 in 6 mi NNE 11.5 mph - -   Haze
3:00 PM 87.8 °F 99.7 °F 77.0 °F 70% 29.83 in 6.2 mi NNE 11.5 mph - N/A   Partly Cloudy
4:00 PM 87.8 °F 99.7 °F 77.0 °F 70% 29.80 in 6.2 mi North 15.0 mph - N/A   Partly Cloudy
5:00 PM 84.2 °F 94.1 °F 77.0 °F 79% 29.83 in 6.2 mi NNE 13.8 mph - N/A   Partly Cloudy
6:00 PM 81 °F - 75 °F 78% 29.83 in 6 mi North 13.8 mph - -   Haze
6:00 PM 80.6 °F 86.2 °F 75.2 °F 84% 29.83 in 6.2 mi North 13.8 mph - N/A   Partly Cloudy
7:00 PM 77.0 °F - 75.2 °F 94% 29.83 in 6.2 mi North 5.8 mph - N/A   Partly Cloudy
8:00 PM 77.0 °F - 75.2 °F 94% 29.86 in 6.2 mi NW 5.8 mph - N/A   Partly Cloudy
9:00 PM 76 °F - 75 °F 97% 29.87 in 7 mi NNW 2.3 mph - -   Haze
9:00 PM 77.0 °F - 75.2 °F 94% 29.86 in 6.2 mi Calm Calm - N/A   Partly Cloudy
10:00 PM 75.2 °F - 73.4 °F 94% 29.89 in 6.2 mi SSE 3.5 mph - N/A   Partly Cloudy
11:00 PM 75.2 °F - 73.4 °F 94% 29.89 in 6.2 mi Calm Calm - N/A   Partly Cloudy